Flag for U.S.A. Weather past 2 weeks in Acworth, Georgia, U.S.A.

Now
73 °F

Clear.


Feels Like: 70 °F
Forecast: 70 / 90 °F
Wind: No wind

Location: Cartersville Airport

Current Time: Sep 1, 2014 at 4:41:18 AM

Latest Report: Sep 1, 2014 at 3:53 AM


Visibility: 9 mi

Pressure: 30.06 "Hg

Humidity: 94%

Dew point: 71 °F

Location of AcworthLocation

Historic Weather in Acworth — Graph

°F

Acworth temperature yesterday

Maximum temperature yesterday: 91 °F (at 2:53 PM)
Minimum temperature yesterday: 70 °F (at 3:53 AM)
Average temperature yesterday: 78 °F

Past Weeks' High & Low Weather Summary

 TemperatureHumidityPressure
High94 °F (Aug 22, 4:53 PM)97% (Aug 17, 4:53 AM)30.16 "Hg (Aug 17, 4:53 AM)
Low60 °F (Aug 28, 6:53 AM)26% (Aug 28, 2:53 PM)29.84 "Hg (Aug 18, 4:53 PM)
Average77 °F74%30.01 "Hg
* Reported Aug 17 2:53 AM — Sep 1 2:53 AM, Acworth, Weather by CustomWeather, © 2014

Note: Actual official high and low records may vary slightly from our data, if they occured in-between our weather recording intervals... More about our weather records

Advertising

Acworth weather history for previous 24 hours

 ConditionsComfort  
Time TempWeatherWind HumidityBarometerVisibility
2:53 AM
Sep 1
74 °FClear.No wind91%30.06 "Hg10 mi
1:53 AM74 °FClear.No wind91%30.06 "Hg10 mi
12:53 AM72 °FClear.No wind93%30.07 "Hg10 mi
11:53 PM
Aug 31
73 °FClear.No wind94%30.08 "Hg10 mi
10:53 PM74 °FClear.No wind91%30.09 "Hg10 mi
9:53 PM76 °FClear.No wind88%30.07 "Hg10 mi
8:53 PM78 °FSunny.No wind82%30.06 "Hg10 mi
7:53 PM81 °FSunny.No wind72%30.06 "Hg10 mi
6:53 PM88 °FSunny.3 mph48%30.06 "Hg10 mi
5:53 PM91 °FSunny.3 mph42%30.04 "Hg10 mi
4:53 PM89 °FPassing clouds.3 mph48%30.06 "Hg10 mi
3:53 PM91 °FPassing clouds.6 mph45%30.06 "Hg10 mi
2:53 PM91 °FScattered clouds.9 mph45%30.08 "Hg10 mi
1:53 PM87 °FScattered clouds.6 mph55%30.11 "Hg10 mi
12:53 PM84 °FPartly sunny.No wind63%30.12 "Hg10 mi
11:53 AM84 °FSunny.6 mph63%30.13 "Hg10 mi
10:53 AM79 °FOvercast.3 mph74%30.14 "Hg10 mi
9:53 AM77 °FOvercast.6 mph82%30.14 "Hg10 mi
8:53 AM74 °FSunny.No wind91%30.14 "Hg10 mi
7:53 AM70 °FPassing clouds.No wind93%30.14 "Hg10 mi
6:53 AM70 °FPassing clouds.No wind93%30.14 "Hg10 mi
5:53 AM70 °FClear.No wind93%30.12 "Hg10 mi
4:53 AM70 °FPassing clouds.No wind93%30.11 "Hg9 mi
Weather by CustomWeather, © 2014

See weather overviewHow to use our weather pages